[[{"header":{"parameterUnit":"m.s-1","parameterCategory":1,"la1":30.2991,"la2":30.254,"lo1":-89.0895,"lo2":-89.0444,"dy":0.0017,"dx":0.0017,"nx":28,"ny":28,"refTime":"2023-09-12T03:00:00:Z","depth":0,"parameterNumber":2,"parameterNumberName":"U-component_of_WINDS"},"data":[0,0,0,0,0,0,0,0,0,0,0,0,0,0,0,0,0,0,0,0,0,0,0,0,0,0,0,0,0,0,0,0,0,0,0,0,0,0,0,0,0,0,0,0,0,0,0,0,0,0,0,0,0,0,0,0,0,0,-0.8053,-0.8053,0,-0.8019,-0.8018,-0.8018,-0.7981,-0.798,-0.798,-0.7979,-0.7945,-0.7945,-0.7944,0,0,0,0,0,0,0,0,0,0,0,0,0,-0.8089,-0.8089,-0.8053,-0.8053,-0.8052,-0.8019,-0.8018,-0.8018,-0.7981,-0.798,-0.7979,-0.7979,-0.7945,-0.7945,-0.7944,0,0,0,0,0,0,0,0,0,0,0,0,0,-0.8066,-0.8089,-0.8053,-0.803,-0.8027,-0.8019,-0.8018,-0.8018,-0.7981,-0.798,-0.7979,-0.7979,-0.7946,-0.7945,-0.7944,-0.7957,0,0,-0.7942,-0.7942,0,0,0,0,0,0,0,0,-0.8067,-0.8065,-0.8034,-0.8031,-0.8029,-0.8003,-0.8018,-0.7997,-0.7981,-0.7999,-0.7979,-0.7978,-0.7965,-0.7963,-0.7958,-0.7955,-0.7953,-0.7942,-0.7942,-0.7942,-0.7942,0,0,0,0,0,0,0,-0.8069,-0.8066,-0.8039,-0.8033,-0.803,-0.8022,-0.8017,-0.8014,-0.7987,-0.7997,-0.7994,-0.7991,-0.7964,-0.7959,-0.7957,-0.7953,-0.7942,-0.7942,-0.7941,-0.7941,-0.7959,-0.796,0,0,0,0,0,0,-0.8074,-0.8068,-0.8041,-0.8038,-0.8046,-0.8022,-0.8017,-0.8012,-0.7987,-0.7982,-0.7991,-0.7989,-0.796,-0.7958,-0.7956,-0.7969,-0.7942,-0.7941,-0.7941,-0.7958,-0.7959,-0.796,0,0,0,0,0,0,-0.8075,-0.8072,-0.8042,-0.8052,-0.8048,-0.8022,-0.8017,-0.8012,-0.8007,-0.7982,-0.7978,-0.7991,-0.796,-0.7957,-0.7957,-0.7967,-0.7941,-0.794,-0.7957,-0.7958,-0.796,-0.7996,0,0,0,0,0,0,-0.8076,-0.8072,-0.8076,-0.8053,-0.8047,-0.8043,-0.8017,-0.8012,-0.8006,-0.8003,-0.7981,-0.7977,-0.7959,-0.7958,-0.7956,-0.7966,-0.794,-0.7956,-0.7958,-0.7959,-0.7993,-0.7998,-0.8002,0,0,0,0,0,-0.8077,-0.8088,-0.8077,-0.8074,-0.8052,-0.8044,-0.8041,-0.8019,-0.8007,-0.8011,-0.7995,-0.7978,-0.7966,-0.7958,-0.7956,-0.7966,-0.7955,-0.7957,-0.7959,-0.7991,-0.7997,-0.8002,0,0,0,0,0,0,-0.8114,-0.8084,-0.8072,-0.8074,-0.8062,-0.8037,-0.8042,-0.8026,-0.8017,-0.8014,-0.7988,-0.7984,-0.7987,-0.7976,-0.7968,-0.7977,-0.7958,-0.796,-0.7984,-0.7989,-0.7993,-0.7996,-0.7939,0,0,0,0,0,-0.8122,-0.8118,-0.8092,-0.8097,-0.8092,-0.8068,-0.8064,-0.8048,-0.8034,-0.8029,-0.8013,-0.8001,-0.7995,-0.7991,-0.7984,-0.7991,-0.7987,-0.7997,-0.8002,-0.8005,-0.8007,-0.8011,-0.8016,-0.7966,-0.7966,-0.7966,0,0,-0.814,-0.8123,-0.8122,-0.8104,-0.8093,-0.8089,-0.8064,-0.8061,-0.8059,-0.8029,-0.8028,-0.8016,-0.8,-0.8005,-0.8006,-0.7996,-0.802,-0.8008,-0.8011,-0.801,-0.8014,-0.8018,-0.8023,-0.7967,-0.7967,-0.7967,0,0,-0.817,-0.8156,-0.8159,-0.8148,-0.8131,-0.8115,-0.8116,-0.8094,-0.8085,-0.8083,-0.8061,-0.8058,-0.8048,-0.8038,-0.8031,-0.8058,-0.8042,-0.8057,-0.8079,-0.8084,-0.8087,-0.8091,-0.8101,-0.8105,-0.8058,-0.8059,-0.8059,0,-0.8194,-0.8187,-0.8163,-0.8162,-0.8155,-0.8128,-0.8131,-0.8122,-0.8103,-0.81,-0.8089,-0.8076,-0.8063,-0.8065,-0.8072,-0.8067,-0.8068,-0.8059,-0.8089,-0.8092,-0.8095,-0.8104,-0.8108,-0.8061,-0.806,-0.806,-0.806,0,-0.8218,-0.8214,-0.8218,-0.8201,-0.8195,-0.8196,-0.8173,-0.817,-0.8155,-0.8141,-0.8141,-0.8125,-0.8114,-0.8113,-0.8099,-0.8114,-0.8108,-0.8093,-0.8074,-0.8102,-0.811,-0.8114,-0.8063,-0.8063,-0.8062,-0.8062,0,0,-0.827,-0.8239,-0.8242,-0.8234,-0.8213,-0.8209,-0.821,-0.8199,-0.8197,-0.8186,-0.8186,-0.8178,-0.8164,-0.8157,-0.8141,-0.8145,-0.8169,-0.813,-0.8129,-0.8138,-0.8185,-0.8197,-0.8201,-0.8158,-0.8158,-0.8159,-0.8187,0,-0.8297,-0.8296,-0.8274,-0.8279,-0.8275,-0.8249,-0.825,-0.8237,-0.8224,-0.822,-0.8205,-0.82,-0.8182,-0.8178,-0.818,-0.8165,-0.8178,-0.8163,-0.8158,-0.8159,-0.8164,-0.8206,-0.8218,-0.8245,-0.819,-0.819,-0.8191,0,-0.8329,-0.8318,-0.8323,-0.8302,-0.83,-0.83,-0.8289,-0.8285,-0.8271,-0.8261,-0.8253,-0.8236,-0.8235,-0.8217,-0.8217,-0.8207,-0.8204,-0.8197,-0.8197,-0.8197,-0.8177,-0.8207,-0.8253,-0.8258,-0.8196,-0.8195,-0.8195,0,-0.8368,-0.8355,-0.8356,-0.835,-0.8325,-0.8327,-0.8317,-0.8302,-0.8297,-0.8287,-0.8284,-0.8275,-0.827,-0.8264,-0.8244,-0.8233,-0.8247,-0.8227,-0.824,-0.824,-0.8244,-0.8244,-0.8291,-0.8241,-0.8241,-0.8241,-0.8241,0,-0.84,-0.8404,-0.8373,-0.8374,-0.8378,-0.8354,-0.8359,-0.8346,-0.8333,-0.8332,-0.8308,-0.8308,-0.8282,-0.8278,-0.8263,-0.8266,-0.8264,-0.8256,-0.8252,-0.8259,-0.826,-0.8257,-0.8255,-0.8242,-0.8242,-0.8241,-0.8241,0,-0.8445,-0.8424,-0.8424,-0.8401,-0.8395,-0.8399,-0.838,-0.838,-0.8365,-0.8364,-0.8362,-0.8339,-0.8334,-0.8314,-0.8304,-0.8294,-0.8302,-0.8293,-0.8307,-0.8304,-0.8318,-0.8318,-0.8366,-0.8371,-0.8317,-0.8317,-0.8318,0,-0.8468,-0.847,-0.8447,-0.8444,-0.8435,-0.8431,-0.8426,-0.8402,-0.8398,-0.8382,-0.8385,-0.8378,-0.8371,-0.8364,-0.8347,-0.834,-0.8331,-0.8349,-0.833,-0.8337,-0.8333,-0.8333,-0.8334,-0.8353,-0.8354,-0.8354,-0.8355,0,-0.8511,-0.8501,-0.8494,-0.8484,-0.8478,-0.8469,-0.8459,-0.8458,-0.8432,-0.8429,-0.8423,-0.8417,-0.8407,-0.8401,-0.8391,-0.8381,-0.8364,-0.8361,-0.8363,-0.8371,-0.8379,-0.8375,-0.8319,-0.836,-0.8359,-0.8359,-0.8359,-0.8359,-0.8546,-0.8547,-0.8531,-0.8525,-0.8514,-0.8506,-0.8505,-0.849,-0.8484,-0.8474,-0.846,-0.8457,-0.8443,-0.8427,-0.8419,-0.8416,-0.8407,-0.8411,-0.8412,-0.8413,-0.8417,-0.8378,-0.8414,-0.8414,-0.8414,-0.8414,-0.8414,0,-0.8589,-0.8577,-0.8571,-0.8558,-0.8553,-0.8536,-0.8524,-0.8522,-0.8518,-0.8507,-0.85,-0.8494,-0.8488,-0.847,-0.8463,-0.8464,-0.8456,-0.8463,-0.8463,-0.8461,-0.8425,-0.8424,-0.8469,-0.8469,-0.8469,-0.8469,-0.8469,-0.8469,-0.8611,-0.8612,-0.86,-0.8596,-0.8585,-0.858,-0.8575,-0.8567,-0.8558,-0.8552,-0.8546,-0.8534,-0.8521,-0.8512,-0.8506,-0.8501,-0.85,-0.8509,-0.8502,-0.8469,-0.8464,-0.8459,-0.8457,-0.8509,-0.8509,-0.8538,-0.8538,-0.8538]},{"header":{"parameterUnit":"m.s-1","parameterCategory":1,"la1":30.2991,"la2":30.254,"lo1":-89.0895,"lo2":-89.0444,"dy":0.0017,"dx":0.0017,"nx":28,"ny":28,"refTime":"2023-09-12T03:00:00:Z","depth":0,"parameterNumber":3,"parameterNumberName":"V-component_of_WINDS"},"data":[0,0,0,0,0,0,0,0,0,0,0,0,0,0,0,0,0,0,0,0,0,0,0,0,0,0,0,0,0,0,0,0,0,0,0,0,0,0,0,0,0,0,0,0,0,0,0,0,0,0,0,0,0,0,0,0,0,0,4.2925,4.2926,0,4.2976,4.2976,4.2977,4.295,4.2949,4.2948,4.2946,4.2993,4.2995,4.2997,0,0,0,0,0,0,0,0,0,0,0,0,0,4.2802,4.2804,4.2925,4.2926,4.2927,4.2975,4.2976,4.2977,4.295,4.2949,4.2947,4.2946,4.2992,4.2995,4.2998,0,0,0,0,0,0,0,0,0,0,0,0,0,4.2854,4.2805,4.2925,4.2919,4.2919,4.2975,4.2976,4.2977,4.2951,4.2949,4.2947,4.2945,4.2991,4.2994,4.2998,4.3061,0,0,4.3009,4.3011,0,0,0,0,0,0,0,0,4.2851,4.2859,4.292,4.292,4.292,4.2955,4.295,4.3005,4.2951,4.2939,4.2946,4.2944,4.2981,4.2986,4.2999,4.3063,4.3065,4.301,4.3012,4.3014,4.3015,0,0,0,0,0,0,0,4.2848,4.2856,4.2945,4.2921,4.2921,4.2913,4.2918,4.296,4.297,4.294,4.2938,4.2944,4.2981,4.2996,4.3,4.3066,4.301,4.3013,4.3015,4.3017,4.3183,4.3185,0,0,0,0,0,0,4.2845,4.2854,4.2943,4.2946,4.288,4.2917,4.2922,4.2945,4.297,4.2972,4.2946,4.2943,4.299,4.2996,4.3002,4.3076,4.3014,4.3017,4.3019,4.3181,4.3184,4.3186,0,0,0,0,0,0,4.2842,4.2853,4.2941,4.29,4.291,4.2921,4.2947,4.2948,4.2962,4.2975,4.2976,4.296,4.2989,4.2996,4.3047,4.3078,4.3019,4.3022,4.3179,4.3182,4.3185,4.3226,0,0,0,0,0,0,4.2839,4.2853,4.2877,4.29,4.2913,4.2987,4.2949,4.295,4.2969,4.2966,4.2988,4.299,4.2988,4.3041,4.305,4.3082,4.3025,4.3176,4.318,4.3184,4.3222,4.3231,4.3238,0,0,0,0,0,4.2835,4.2886,4.2879,4.289,4.2944,4.2989,4.2996,4.2994,4.2972,4.2996,4.3005,4.2989,4.3073,4.3047,4.3057,4.3089,4.3174,4.3179,4.3184,4.3219,4.3229,4.3238,0,0,0,0,0,0,4.2864,4.2889,4.2881,4.2942,4.2964,4.2984,4.3015,4.3005,4.3032,4.3028,4.3024,4.3029,4.3081,4.309,4.306,4.3151,4.312,4.3127,4.3143,4.3153,4.3161,4.3156,4.3028,0,0,0,0,0,4.2878,4.2914,4.2933,4.2985,4.2996,4.3004,4.3023,4.3021,4.3042,4.3051,4.3063,4.3083,4.3114,4.3134,4.3163,4.3224,4.3228,4.3252,4.326,4.3266,4.3271,4.3304,4.3314,4.3203,4.3202,4.3202,0,0,4.2907,4.2925,4.2947,4.2991,4.3008,4.3043,4.3012,4.305,4.3076,4.3056,4.3104,4.3114,4.3136,4.3192,4.3217,4.3202,4.3304,4.3272,4.3277,4.3279,4.331,4.332,4.333,4.3206,4.3205,4.3205,0,0,4.2976,4.2994,4.3039,4.3057,4.3083,4.3088,4.3099,4.3122,4.3128,4.3177,4.3162,4.3192,4.3246,4.3263,4.3278,4.3356,4.3342,4.3365,4.3405,4.3437,4.3445,4.3453,4.3479,4.3489,4.3371,4.3371,4.3371,0,4.3007,4.3062,4.3063,4.3103,4.3122,4.3108,4.3153,4.3169,4.3203,4.3216,4.3199,4.3266,4.328,4.3339,4.3359,4.3372,4.3383,4.3362,4.3444,4.3452,4.3459,4.3484,4.3494,4.3374,4.3374,4.3373,4.3373,0,4.3099,4.3137,4.317,4.3205,4.3228,4.327,4.3276,4.3299,4.3295,4.3301,4.3351,4.3368,4.34,4.3414,4.341,4.3473,4.3462,4.3445,4.3413,4.3473,4.3496,4.3506,4.3378,4.3377,4.3376,4.3375,0,0,4.3186,4.3223,4.3234,4.325,4.3279,4.3307,4.3349,4.3382,4.3402,4.3426,4.3459,4.3506,4.3491,4.3508,4.3506,4.3533,4.3592,4.3513,4.3513,4.3525,4.3661,4.3673,4.3684,4.3584,4.3586,4.3588,4.3659,0,4.3257,4.3331,4.3333,4.34,4.3434,4.3422,4.3458,4.3479,4.3486,4.3515,4.3523,4.3556,4.3534,4.3544,4.3571,4.358,4.3619,4.3575,4.3613,4.3615,4.3607,4.3697,4.3709,4.3775,4.3668,4.367,4.3671,0,4.3348,4.3378,4.3448,4.3473,4.3487,4.3519,4.355,4.3579,4.3602,4.3606,4.3626,4.362,4.3661,4.3629,4.3684,4.3654,4.367,4.3677,4.3679,4.3681,4.3645,4.3699,4.3797,4.3806,4.3686,4.3685,4.3684,0,4.3404,4.346,4.351,4.3524,4.3554,4.3577,4.359,4.3611,4.3631,4.3658,4.3671,4.3701,4.3718,4.3741,4.3743,4.372,4.3798,4.3767,4.38,4.38,4.3816,4.3814,4.3915,4.3829,4.3829,4.3829,4.3829,0,4.3481,4.3524,4.3535,4.3566,4.3614,4.3616,4.3663,4.3674,4.3693,4.3724,4.3716,4.3745,4.3746,4.3776,4.3777,4.3822,4.383,4.3833,4.3832,4.3832,4.3832,4.3841,4.3836,4.3832,4.3831,4.3831,4.383,0,4.355,4.3559,4.3612,4.3637,4.3644,4.3678,4.3698,4.3727,4.3734,4.3774,4.3783,4.3794,4.3829,4.3834,4.3873,4.3874,4.3928,4.3923,4.3921,4.3919,4.3952,4.3948,4.4061,4.4076,4.3982,4.3983,4.3984,0,4.3598,4.3631,4.366,4.3681,4.3696,4.373,4.3751,4.3755,4.3776,4.3806,4.383,4.3864,4.3891,4.3947,4.3957,4.3988,4.3983,4.402,4.3987,4.3986,4.3981,4.3979,4.3982,4.4026,4.4027,4.4028,4.4029,0,4.3681,4.3685,4.3716,4.375,4.3776,4.3802,4.3826,4.3843,4.385,4.3875,4.3911,4.3932,4.3974,4.4007,4.4037,4.4049,4.4039,4.404,4.4049,4.4048,4.4045,4.4046,4.3936,4.4036,4.4035,4.4035,4.4034,4.4034,4.374,4.3769,4.3794,4.383,4.3849,4.3872,4.39,4.3912,4.3943,4.3978,4.3978,4.4017,4.4039,4.4079,4.4093,4.4123,4.4111,4.4124,4.4127,4.413,4.4133,4.4042,4.4129,4.4129,4.4128,4.4128,4.4128,0,4.3822,4.3838,4.3871,4.3906,4.3934,4.3925,4.3952,4.3975,4.401,4.4033,4.406,4.4101,4.4134,4.4148,4.418,4.4201,4.4197,4.4209,4.4206,4.4209,4.4143,4.4131,4.4211,4.4211,4.4211,4.4211,4.4211,4.4211,4.3868,4.3916,4.3923,4.3981,4.3996,4.4036,4.4052,4.4073,4.409,4.4137,4.4165,4.4175,4.4194,4.4227,4.4256,4.4259,4.427,4.4284,4.4285,4.4222,4.4214,4.4206,4.4194,4.4287,4.4287,4.4348,4.4349,4.4349]}]]